Regional Weather Roundup
Issued by NWS

Home | Current Version | Previous Version | Graphics & Text | Print | Product List | Glossary On
Versions: 1 2 3 4 5 6 7 8 9 10 11 12 13 14 15 16 17 18 19 20 21 22 23 24 25 26 27 28 29 30 31 32 33 34 35 36 37 38 39 40 41 42 43 44 45 46 47 48 49 50
000
ASUS43 KMPX 201001
RWRMN
WEATHER ROUNDUP FOR MINNESOTA
NATIONAL WEATHER SERVICE TWIN CITIES/CHANHASSEN MN
400 AM CST TUE FEB 20 2018


NOTE: "FAIR" INDICATES FEW OR NO CLOUDS BELOW 12,000 FEET WITH NO
SIGNIFICANT WEATHER AND/OR OBSTRUCTIONS TO VISIBILITY. N/A MEANS
CURRENT SKY AND/OR WEATHER CONDITIONS ARE NOT AVAILABLE.

MNZ060>063-068>070-201100-
   Twin Cities Metro

CITY           SKY/WX    TMP DP  RH WIND       PRES   REMARKS
TWIN CITIES    LGTSLEET  20  19  96 CALM      29.85S FOG
ST PAUL        LGT SNOW  21  18  88 CALM      29.87R FOG
CRYSTAL        LGT SNOW  20  17  88 N5        29.84R FOG     WCI  13
BLAINE         LGT SNOW  21  19  93 CALM      29.84R
LAKEVILLE      CLOUDY    19  19 100 N5        29.83R WCI  13
EDEN PRAIRIE   LGT SNOW  21  17  84 N5        29.82F FOG     WCI  15
SOUTH ST PAUL  CLOUDY    21  18  88 CALM      29.84R
LAKE ELMO      FLURRIES  21  19  93 CALM      29.85R
$$
MNZ001>005-007-008-013>017-022>024-027-028-201100-
   Northwest Minnesota

CITY           SKY/WX    TMP DP  RH WIND       PRES   REMARKS
BEMIDJI        LGT SNOW   6   1  83 N7        29.97R WCI  -6
HALLOCK        FAIR       3   0  85 N9        30.11F WCI -11
ROSEAU         LGT SNOW   5   0  78 NE13      30.06F WCI -12
WARROAD        LGT SNOW   3  -2  78 N8        30.06F WCI -10
THIEF RVR FALL LGT SNOW   4   0  83 N14       30.05F FOG     WCI -14
CROOKSTON      LGT SNOW   7   1  78 N12       30.08F WCI  -9
FOSSTON        LGT SNOW   3   0  85 N12       30.00S WCI -13
DETROIT LAKES  LGT SNOW  10   5  79 N3        29.97S
MOORHEAD       LGT SNOW   5   0  78 N17       30.05R WCI -14
PARK RAPIDS    LGT SNOW   7   2  80 N9        29.93R WCI  -7
MAHNOMEN       LGT SNOW   6   2  84 N13       30.00R WCI -10
$$
MNZ006-009>011-018-025>026-201100-
   North Central Minnesota

CITY           SKY/WX    TMP DP  RH WIND       PRES   REMARKS
BAUDETTE       LGT SNOW   4   0  83 N8        30.02F FOG     WCI  -9
FLAG ISLAND    LGT SNOW   3  -2  78 N13       30.07F WCI -14
INTL FALLS     LGT SNOW   4   0  83 NE9       30.02F FOG     WCI -10
WASKISH        LGT SNOW   5   1  85 N7        30.00F WCI  -7
BIG FORK       LGT SNOW   7   1  78 N5        29.95S VSB 3/4 WCI  -2
LONGVILLE      LGT SNOW   7   3  85 N3        29.92R
GRAND RAPIDS   LGT SNOW   6   2  83 N8        29.93F FOG     WCI  -7
CRANE LAKE     LGT SNOW   3   0  85 CALM      30.02F VSB 3/4
ORR            LGT SNOW   3  -2  78 CALM      29.94F
COOK           SNOW       3   1  92 NE6       29.94F VSB 1/2 WCI  -8
WALKER         LGT SNOW   6   2  84 N6        29.96R WCI  -5
$$
MNZ012-019>021-037-201100-
   Northeast Minnesota

CITY           SKY/WX    TMP DP  RH WIND       PRES   REMARKS
DULUTH         LGT SNOW  14  10  84 NE14      29.82F VSB 1   WCI  -1
ELY            LGT SNOW   3   0  85 N3        29.95S
HIBBING        LGT SNOW   5   2  87 N15       29.88F FOG     WCI -13
EVELETH        LGT SNOW N/A N/A N/A NE13      29.89F
DULUTH HARBOR  LGT SNOW  23  21  93 NE26      29.88F WCI   6
TWO HARBORS    LGT SNOW  16  10  79 N6        29.88F WCI   7
G MARAIS ARPRT LGT SNOW   3  -2  78 N8G16     29.87S WCI -10
$$
MNZ029>031-032-039>041-046>048-054>057-064-201100-
   West Central Minnesota

CITY           SKY/WX    TMP DP  RH WIND       PRES   REMARKS
FERGUS FALLS   LGT SNOW   9   5  85 N7        29.98F WCI  -3
WHEATON        LGT SNOW   7   3  85 NW15G21   30.01F VSB 1   WCI -11
MORRIS         LGT SNOW  10   7  85 N12       29.95S VSB 3/4 WCI  -4
ALEXANDRIA     LGT SNOW  10   6  84 N10       29.92R VSB 3/4 WCI  -4
ELBOW LAKE     LGT SNOW   9   6  89 N9        29.96F VSB 1   WCI  -5
WADENA         LGT SNOW   7   3  85 N8        29.94R WCI  -6
GLENWOOD       LGT SNOW  10   7  85 N9        29.91R WCI  -2
APPLETON       LGT SNOW  12   9  85 N14       29.94F WCI  -3
MADISON        LGT SNOW  10   7  85 N16       29.94F WCI  -7
WILLMAR        CLOUDY    12  10  92 N7        29.93F WCI   2
$$
MNZ033>034-036-042>043-049>051-058-059-201100-
   Central Minnesota

CITY           SKY/WX    TMP DP  RH WIND       PRES   REMARKS
ST CLOUD       SNOW      13  11  92 NW9       29.91R VSB 1/2 WCI   1
SAUK CENTRE    LGT SNOW  11   8  87 N9        29.92R WCI  -2
PAYNESVILLE    LGT SNOW  13  11  92 N6        29.93R VSB 1   WCI   3
PINE RIVER     LGT SNOW   7   3  85 N10       29.95R VSB 3/4 WCI  -8
BRAINERD       LGT SNOW  11   5  77 N8        29.90R VSB 3/4 WCI  -1
STAPLES        LGT SNOW   9   3  78 N8        29.94R WCI  -4
LONG PRAIRIE   LGT SNOW  10   9  92 NW8       29.93R WCI  -1
LITTLE FALLS   LGT SNOW  12   5  73 N3        29.94R VSB 3/4
LITCHFIELD     MIX PCPN  16  12  86 N8        29.90R VSB 3/4 WCI   5
BUFFALO        LGT SNOW  17  15  91 NW8       29.91R WCI   7
MAPLE LAKE     LGT SNOW  17  16  94 NW8       29.90R WCI   7
HUTCHINSON     LGT SNOW  17  14  90 NW13      29.90R WCI   3
$$
MNZ037-044-045-052-053-201100-
   East Central Minnesota

CITY           SKY/WX    TMP DP  RH WIND       PRES   REMARKS
PRINCETON      LGT SNOW  18  16  93 N6        29.87R WCI   9
MORA           LGT SNOW  18  14  86 NE6       29.87R WCI   9
CAMBRIDGE      LGT SNOW  21  16  79 N3        29.86R
RUSH CITY      FLURRIES  19  16  89 NE8       29.85R WCI   9
MOOSE LAKE     CLOUDY    18  14  86 N8        29.85F FOG     WCI   7
HINCKLEY       FLURRIES  19  18  93 N6        29.86R WCI  11
CLOQUET        LGT SNOW  12   9  85 N7        29.84F WCI   2
MCGREGOR       CLOUDY    10   9  92 N13       29.89R WCI  -5
$$
MNZ071>073-080-081-089-090-097-098-201100-
   Southwest Minnesota

CITY           SKY/WX    TMP DP  RH WIND       PRES   REMARKS
MONTEVIDEO     LGT SNOW  12  10  92 N9        29.92F WCI   0
GRANITE FALLS  LGT SNOW  15  12  89 NW9       29.95S WCI   3
CANBY          LGT SNOW   9   6  87 NW10G16   29.94F WCI  -5
MARSHALL       LGT SNOW   8   5  87 NW14      29.90F VSB 3/4 WCI  -8
REDWOOD FALLS  LGT SNOW  14  12  92 N9        29.90F FOG     WCI   2
OLIVIA         LGT SNOW  16  12  86 N9        29.90R WCI   4
PIPESTONE        N/A      7   3  85 N8        29.86  WCI  -6
WINDOM         LGT SNOW  14   1  57 CALM      29.85S VSB 3/4
WORTHINGTON    FLURRIES  12   9  87 NW17      29.84F WCI  -5
JACKSON        CLOUDY    16  12  86 NW13      29.84F WCI   2
TRACY          FLURRIES  10   8  92 N10       29.87F WCI  -3
SLAYTON        LGT SNOW   9   6  91 N9        29.87F WCI  -5
$$
MNZ065>067-074>077-082>085-091>093-201100-
   South Central Minnesota

CITY           SKY/WX    TMP DP  RH WIND       PRES   REMARKS
NEW ULM        CLOUDY    16  12  86 NW12      29.88R WCI   3
ST JAMES       CLOUDY    16  16 100 NW10      29.88S WCI   3
FAIRMONT       FLURRIES  18  16  92 N17       29.84F WCI   3
GLENCOE        LGT SNOW  20  19  96 NW8       29.86R WCI  10
FARIBAULT      CLOUDY    19  18  93 CALM      29.81F
OWATONNA       MIX PCPN  21  19  93 CALM      29.80S
WASECA         LGT SNOW  21  19  93 NW6       29.83S WCI  14
ALBERT LEA     CLOUDY    23  21  93 CALM      29.78F
$$
MNZ078>079-086>088-094>096-201100-
   Southeast Minnesota

CITY           SKY/WX    TMP DP  RH WIND       PRES   REMARKS
ROCHESTER      MIX PCPN  28  27  96 CALM      29.77R
RED WING       LGT SNOW  23  18  80 CALM      29.81R
STANTON        CLOUDY    22  20  91 NW5       29.80F WCI  16
DODGE CENTER   FLURRIES  23  21  93 CALM      29.78R
WINONA         MIX PCPN  30  30 100 SE5       29.75F WCI  25
AUSTIN         MIX PCPN  27  25  93 NW5       29.77S WCI  21
PRESTON        MIX PCPN  29  28  96 CALM      29.76R
$$
ABBREVIATIONS USED IN REMARKS
   TC - TEMPERATURES IN CELSIUS
  WCI - WIND CHILL INDEX
   HX - HEAT INDEX
  VSB - VISIBILITY
$$



USA.gov is the U.S. government's official web portal to all federal, state and local government web resources and services.